RH
17 16 20 16 19 98 30 15 12 12 27 62 100 96 54 40 21 17 13 42 38 41 22 19 28 37 53 86 90 85 51 55 34 23 70 98 100 100 100 100 100 79 54 63
17 18 19 16 14 14 12 11 23 11 26 100 100 97 57 17 24 16 15 27 43 45 37 21 22 33 52 62 95 94 57 100 42 40 45 50 100 100 100 97 85 76 60 50
17 23 19 16 14 15 47 42 41 46 70 100 85 52 14 21 28 22 37 26 62 64 50 28 18 25 48 61 100 100 62 94 63 84 72 46 89 98 100 81 73 70 60 50
17 19 19 18 16 14 94 28 21 34 85 90 38 36 14 22 25 27 30 28 55 80 63 39 30 25 48 57 100 100 82 87 64 76 71 98 100 100 100 100 98 68 79 62
16 19 18 17 16 17 100 73 18 28 47 39 32 93 9 9 12 26 44 48 56 73 63 61 28 26 50 83 72 100 100 72 52 52 69 100 100 100 100 100 100 97 87 64
17 19 19 19 17 15 14 13 21 32 49 96 45 99 100 9 9 12 15 22 44 41 49 63 81 46 50 82 90 87 100 100 65 43 39 98 100 100 100 99 93 93 88 95
17 19 18 19 17 16 15 24 39 30 94 100 62 100 100 12 11 12 17 25 23 18 26 47 75 86 56 46 81 78 90 100 68 62 39 49 84 100 99 98 100 91 82 63
16 18 18 18 17 16 14 60 100 91 40 81 27 13 11 12 12 11 12 14 17 22 26 29 30 32 54 63 53 70 63 74 100 88 73 62 32 41 61 97 100 90 66 56
15 18 17 18 18 17 14 96 100 99 29 55 36 11 11 12 12 11 12 18 14 14 17 17 28 38 53 37 48 47 47 55 63 93 88 69 72 78 65 52 48 67 73 64
14 16 19 19 20 17 46 15 35 23 51 64 58 19 30 11 11 12 12 12 14 12 12 12 14 16 34 53 35 25 35 44 48 56 65 92 87 62 54 54 53 53 72 65
13 16 20 20 20 17 22 22 48 70 52 69 58 45 36 15 11 11 11 11 12 10 10 11 11 12 13 21 52 50 22 28 37 40 44 42 50 57 60 53 46 79 69 84
12 16 20 26 27 19 25 30 54 48 92 100 68 46 38 12 10 10 11 11 10 9 9 9 9 9 10 12 18 68 73 43 23 23 24 25 25 24 32 43 57 63 54 60
11 15 23 29 23 20 33 30 43 50 100 71 51 37 34 12 10 10 10 11 9 8 8 8 8 8 8 9 12 27 72 90 87 81 65 47 63 32 24 17 15 15 16 17
12 14 24 34 45 40 34 30 46 45 100 64 39 25 15 12 12 11 12 12 9 7 7 8 8 8 8 9 10 15 32 50 61 33 17 18 15 34 85 90 87 85 87 93
16 16 25 37 69 67 47 38 31 50 55 58 34 26 53 45 25 13 13 14 10 8 7 8 9 10 10 9 9 9 9 9 10 10 11 11 10 10 10 15 28 30 22 16
20 18 29 46 100 57 48 39 34 37 65 65 100 51 49 57 53 35 14 10 9 9 9 9 10 10 11 12 13 14 13 13 12 12 11 11 11 11 10 10 9 9 8 8
23 18 23 40 40 63 66 50 46 39 66 73 89 48 63 55 70 54 21 10 9 8 10 10 10 10 11 11 12 12 11 10 9 10 10 11 12 12 13 14 14 16 15 14
23 19 22 41 46 57 65 58 56 37 70 60 46 42 95 56 77 72 26 11 8 8 9 10 10 11 11 11 10 10 10 12 16 19 20 21 21 22 23 24 25 25 23 29
30 27 22 35 34 61 67 60 49 38 67 94 60 91 86 84 64 73 47 10 9 10 9 10 11 12 12 11 11 14 19 26 31 36 37 35 37 39 33 29 25 22 23 28
26 31 20 41 43 46 66 60 58 42 56 100 82 92 97 75 100 89 49 13 14 12 11 12 13 13 15 19 23 26 38 49 50 42 41 56 47 43 42 34 30 28 30 32
21 24 18 30 32 55 60 62 59 41 68 99 99 86 73 82 73 65 46 16 26 25 19 22 24 25 27 29 32 38 73 69 73 73 58 54 47 44 38 34 38 35 35 31
20 24 22 25 35 60 58 61 56 55 49 97 100 100 85 67 63 56 40 19 22 30 28 25 28 32 33 39 51 73 70 64 68 66 52 43 44 42 45 48 41 37 31 28
20 22 31 22 44 98 57 70 71 60 54 94 100 100 100 99 100 47 34 22 17 27 37 34 34 36 37 69 91 91 69 62 51 50 42 39 47 56 52 38 33 32 33 32
26 23 33 29 45 98 60 67 70 66 54 64 74 88 66 100 100 56 28 22 21 32 49 43 55 79 85 93 84 71 56 52 43 50 44 44 52 53 48 52 50 43 35 36
27 22 36 29 37 100 59 61 74 70 65 60 60 61 61 52 80 50 26 24 38 60 69 79 88 94 95 94 82 59 61 48 49 58 69 76 75 72 66 61 48 41 47 42
27 24 25 34 36 97 69 56 72 72 66 66 69 72 71 56 53 41 26 43 61 67 69 76 80 80 88 94 84 55 53 47 58 62 66 70 83 88 78 70 54 51 51 56
Wind_Speed
18 13 11 10 10 19 23 14 10 8 7 5 12 18 18 20 16 14 14 20 16 13 12 14 14 12 8 2 3 11 5 5 15 40 57 49 33 36 40 38 34 33 29 24
22 18 11 10 10 10 14 14 11 8 3 2 15 21 24 19 13 10 12 18 18 12 9 14 17 15 12 6 2 9 9 14 12 27 38 50 39 39 37 39 39 34 29 25
28 23 19 12 12 15 12 14 17 6 4 8 14 16 20 13 5 1 5 14 17 13 11 12 17 16 15 8 3 4 8 9 15 21 32 37 41 42 38 40 33 30 26 26
32 27 23 15 12 15 9 19 16 9 13 16 12 19 16 6 6 8 3 12 16 13 13 10 14 17 17 12 12 3 6 14 14 18 32 33 36 44 37 37 36 29 30 30
35 30 25 16 14 5 3 24 13 11 2 12 24 20 8 5 7 10 7 8 14 17 14 10 12 16 19 13 12 13 6 8 14 21 38 30 27 33 37 34 31 32 30 28
33 31 27 20 16 7 8 13 10 8 19 18 15 3 15 7 6 13 11 8 10 14 15 12 9 10 18 16 14 11 12 11 14 20 30 38 26 28 28 36 35 33 32 30
36 35 31 24 19 7 5 13 10 9 24 20 3 11 4 1 6 11 14 12 11 11 9 9 12 12 14 17 18 16 14 11 14 19 23 35 36 32 30 33 31 32 34 33
41 37 35 29 21 10 3 7 5 5 14 13 1 13 15 10 7 7 12 15 16 17 15 13 12 10 14 17 19 19 18 17 15 17 20 22 27 34 33 35 31 32 33 31
47 44 38 30 26 16 8 25 8 17 13 3 2 10 13 9 7 6 7 7 12 14 11 11 13 12 8 12 23 24 24 21 20 19 18 22 24 24 27 30 32 34 34 32
53 48 39 36 30 20 15 15 23 16 9 8 10 5 5 7 5 4 4 4 5 10 11 11 10 11 13 12 11 20 25 25 24 21 20 20 21 24 26 28 27 27 28 30
55 50 45 39 34 26 21 14 12 11 8 12 9 8 6 8 7 4 3 2 5 9 12 11 10 10 11 12 14 13 15 23 25 24 23 23 23 23 23 23 27 27 28 30
52 52 47 44 39 30 25 19 19 14 21 11 7 8 4 7 7 6 5 3 5 10 14 13 11 11 12 12 12 13 14 14 14 15 16 18 23 26 25 26 28 27 27 29
53 53 51 50 43 34 29 23 18 15 7 12 10 7 3 7 7 7 6 5 8 13 19 17 14 14 14 14 15 15 18 21 19 15 9 7 5 7 14 21 26 27 29 31
54 55 53 46 41 38 34 28 24 29 26 25 14 9 6 7 7 8 8 6 8 12 17 19 16 15 16 16 17 16 15 11 7 5 6 6 5 5 6 7 9 12 15 20
55 52 55 51 46 42 39 33 29 28 24 18 10 13 6 7 5 5 8 6 8 10 14 18 15 14 14 15 16 15 13 10 7 5 5 5 3 2 2 5 9 12 14 16
60 55 59 55 43 52 46 36 31 30 26 18 5 16 7 3 4 2 6 8 8 8 11 13 11 9 9 9 8 7 6 4 2 1 1 2 3 3 5 7 10 12 14 16
63 60 63 64 64 55 48 40 33 31 32 33 39 36 16 9 1 3 7 9 9 9 8 9 8 8 7 7 7 6 5 5 5 5 5 4 4 4 6 8 9 12 15 16
66 62 62 66 65 61 49 44 36 33 31 33 30 23 15 11 5 4 6 12 10 8 7 8 9 9 9 9 9 8 8 8 7 5 3 3 4 6 8 10 13 16 18 16
69 66 64 69 65 60 55 46 40 35 34 31 24 21 19 14 10 8 7 15 10 8 8 8 9 10 10 9 9 10 9 7 5 4 4 4 6 8 10 15 16 19 20 20
75 73 69 71 66 61 58 52 45 40 33 32 30 28 23 18 15 12 12 18 14 10 9 10 10 10 10 10 10 10 8 4 2 2 4 8 8 12 15 16 19 21 20 21
74 74 68 66 65 67 64 55 49 39 35 32 34 31 28 23 22 18 18 19 17 12 10 13 12 11 10 8 8 7 4 3 2 7 8 13 16 18 21 23 25 26 26 30
73 74 69 68 69 69 66 57 48 41 40 38 39 35 33 27 22 24 22 23 20 16 13 13 12 11 10 8 9 3 3 4 8 12 15 21 22 25 26 28 29 31 34 36
77 75 71 67 63 66 67 58 51 45 44 41 39 34 38 27 32 29 28 28 24 21 17 15 13 11 10 12 5 6 7 10 16 19 20 23 21 23 28 31 30 35 41 47
72 78 79 75 75 74 70 66 57 54 45 43 41 39 36 38 40 33 31 30 26 24 22 17 15 14 11 9 10 12 11 12 11 15 17 20 20 20 25 33 39 45 49 52
76 79 79 75 76 79 76 68 60 55 49 48 40 38 34 35 39 34 34 30 27 24 22 20 18 15 12 9 11 12 12 12 16 14 19 23 25 29 33 36 42 46 52 56
78 77 83 74 74 78 75 72 65 63 56 46 44 37 31 38 37 35 35 32 27 24 21 19 16 15 12 11 14 12 13 14 16 19 24 27 32 40 37 41 45 48 55 59
Wind_Direction
264 286 323 359 38 186 277 314 301 287 263 278 319 299 319 323 308 273 235 216 207 200 208 201 190 198 202 198 15 7 25 186 193 195 206 201 187 189 201 209 201 203 203 209
259 271 282 302 336 338 326 332 323 284 208 36 289 301 315 324 309 257 226 215 212 212 212 200 191 188 198 174 63 24 77 89 175 185 193 209 195 198 192 199 212 213 230 229
255 261 264 289 322 335 340 347 334 326 136 241 292 322 329 324 322 202 217 209 203 215 223 190 187 182 191 155 172 13 96 132 158 180 189 186 198 202 206 217 223 221 211 215
247 253 258 270 299 338 330 346 342 343 62 300 347 341 326 326 60 65 127 199 194 204 210 200 187 180 183 165 162 222 109 158 155 165 172 158 190 201 203 215 215 223 215 224
240 245 251 259 274 344 125 301 335 347 30 16 7 357 331 18 80 88 107 173 200 205 203 184 183 180 182 174 179 182 141 148 154 159 167 163 178 193 198 207 218 220 226 229
235 239 244 246 251 273 278 334 349 3 52 354 15 297 353 10 99 102 110 131 179 194 196 185 172 181 185 188 187 188 179 161 172 171 180 188 177 186 199 208 218 219 224 228
231 232 237 239 243 258 314 15 22 82 103 238 225 105 295 326 84 96 98 102 129 134 138 167 193 191 197 201 197 196 194 181 171 178 188 194 201 197 203 210 219 219 224 233
227 229 231 231 238 236 274 106 59 351 154 221 194 230 199 175 141 115 112 106 103 106 102 106 125 144 200 208 209 207 199 196 186 181 185 197 202 209 213 210 214 222 223 228
222 225 228 229 233 224 218 179 280 261 232 183 300 203 178 169 145 118 100 104 113 110 106 99 101 112 125 189 210 212 212 211 202 199 198 196 201 208 217 224 227 230 235 242
219 222 223 222 223 216 195 194 216 242 185 119 263 230 316 192 167 136 104 102 119 116 118 119 122 116 109 106 154 201 209 207 211 212 211 212 212 215 221 223 227 234 238 243
217 218 219 219 218 219 201 203 185 196 215 194 235 259 268 225 196 166 134 85 157 143 125 121 119 124 117 104 107 125 182 203 211 214 215 219 225 231 233 235 235 240 244 247
216 215 216 214 214 213 201 192 188 197 167 227 243 248 261 229 214 186 149 134 170 147 127 119 125 127 127 126 120 116 116 138 172 200 218 228 234 234 235 239 240 244 246 251
214 210 211 214 215 211 199 197 185 154 278 214 235 219 200 209 200 180 140 148 165 150 130 120 119 118 116 118 123 122 121 123 122 124 121 139 156 191 223 238 245 252 257 262
215 209 206 208 206 206 201 197 196 170 219 224 226 197 169 173 178 180 138 159 159 139 123 115 110 108 109 110 112 115 124 135 141 143 141 146 124 143 181 204 223 237 245 252
210 207 204 201 202 202 204 198 203 203 197 209 215 168 143 130 141 204 162 185 181 143 126 115 114 109 103 101 99 99 100 100 98 90 75 58 37 25 298 263 265 272 283 287
207 204 200 195 198 209 204 200 204 205 191 170 259 233 219 220 127 240 239 206 193 169 135 120 117 107 98 90 84 82 82 86 82 54 40 9 5 330 303 296 291 293 297 298
206 205 203 199 203 198 198 202 204 204 194 181 180 219 203 223 202 301 270 232 205 187 150 136 120 106 96 94 108 126 131 124 101 82 69 59 34 355 338 320 315 308 302 309
205 205 203 203 201 199 199 198 203 203 197 206 216 210 213 214 217 262 262 234 206 175 152 124 116 111 114 118 124 126 116 108 103 99 71 20 356 331 313 312 311 309 305 304
203 205 202 204 205 195 198 200 201 196 197 211 221 219 221 220 216 234 255 220 184 165 145 122 122 127 139 144 136 126 117 117 122 77 41 8 355 339 321 310 309 307 312 316
202 203 202 202 199 200 200 200 200 199 196 207 213 214 217 214 217 229 246 221 166 164 154 143 143 148 149 139 131 129 132 138 107 20 1 350 348 331 326 325 326 329 317 314
206 204 203 202 199 197 203 201 203 197 192 201 211 219 228 215 221 225 233 209 165 164 170 156 155 155 157 148 149 147 163 222 300 344 326 325 319 322 324 326 326 330 325 324
203 204 203 202 197 196 203 203 203 198 197 200 207 216 227 227 236 225 227 210 182 179 194 191 183 179 170 163 169 200 287 336 309 290 307 317 315 317 325 337 334 333 334 336
203 200 202 202 194 199 204 200 202 203 201 200 200 210 222 221 234 230 222 212 193 183 192 200 197 198 189 177 206 261 294 296 310 303 304 311 322 323 334 342 347 348 349 351
201 200 200 201 194 197 201 200 202 207 203 197 197 205 217 219 232 229 229 209 197 184 179 176 167 172 178 207 247 263 290 307 329 341 350 353 352 345 349 353 355 354 353 353
200 201 199 200 196 198 200 197 200 207 204 201 199 207 221 228 228 224 218 203 187 179 175 170 173 185 201 237 261 269 279 306 326 330 331 334 332 332 339 336 341 345 349 350
198 199 200 197 197 201 203 198 200 206 206 201 199 208 224 227 225 221 208 191 188 189 188 192 196 201 217 245 262 272 290 313 328 323 315 316 328 333 330 330 335 338 342 344